[[{"header":{"parameterUnit":"m.s-1","parameterCategory":2,"la1":30.2992,"la2":30.254,"lo1":-89.0895,"lo2":-89.0443,"dy":0.0025,"dx":0.0025,"nx":19,"ny":19,"refTime":"2026-03-10T09:00:00:Z","depth":"0","parameterNumber":2,"parameterNumberName":"U-component_of_CURRENTS"},"data":[0,0,0,0.1954,0.1954,0.1924,0.1924,0.1926,0.1926,0,0,0,0,0,0,0,0,0,0,0,0.1948,0.1948,0.1954,0.1954,0.1924,0.1924,0.1925,0.1926,0,0,0,0,0,0,0,0,0,0,0,0.1948,0.1948,0.1948,0.1954,0.1924,0.1924,0.1925,0.1931,0,0,0,0,0,0,0,0,0,0,0.1952,0.197,0.1948,0.1948,0.1954,0.1925,0.1924,0.1931,0.1931,0.1959,0,0.196,0,0.1965,0.193,0.193,0,0,0,0.1926,0.197,0.1952,0.1948,0.1954,0.1925,0.193,0.193,0.1931,0.196,0.196,0.1961,0.1965,0.193,0.193,0.2059,0.206,0,0,0.1928,0.1951,0.1952,0.1952,0.1956,0.1931,0.1929,0.193,0.1942,0.196,0.1961,0.1965,0.193,0.1931,0.2058,0.2059,0,0,0,0.1951,0.1953,0.1933,0.1952,0.1956,0.1931,0.1929,0.1941,0.1932,0.1961,0.1965,0.1931,0.1931,0.2057,0.2058,0.2097,0,0,0,0.1951,0.1968,0.1934,0.1949,0.1956,0.195,0.1941,0.1931,0.1932,0.1965,0.1931,0.1932,0.2056,0.2058,0.2093,0.2084,0,0,0,0.1947,0.1969,0.1965,0.195,0.195,0.1949,0.1939,0.193,0.1936,0.193,0.1932,0.2055,0.2057,0.209,0.208,0.2145,0,0,0,0.1971,0.198,0.1965,0.1985,0.1951,0.1961,0.1938,0.1965,0.1967,0.1931,0.2056,0.2058,0.2089,0.2077,0.2142,0.204,0.2046,0,0,0.1992,0.1984,0.1994,0.1981,0.1995,0.1963,0.2006,0.201,0.2014,0.2051,0.2053,0.2095,0.2079,0.2144,0.2179,0.218,0,0,0,0.2007,0.2002,0.2009,0.2015,0.2022,0.203,0.2038,0.2059,0.2104,0.2031,0.2133,0.2122,0.2162,0.2096,0.2098,0.1936,0.2069,0.2069,0.2069,0.2027,0.2026,0.2034,0.2032,0.2054,0.2094,0.2118,0.2153,0.2155,0.2206,0.2184,0.2295,0.2227,0.2227,0.2063,0.2232,0.2232,0.2233,0.2233,0.2014,0.2004,0.2026,0.2026,0.2062,0.2099,0.218,0.2211,0.2294,0.2266,0.2304,0.2175,0.2231,0.2055,0.2236,0.2235,0.2235,0.2235,0.2234,0.1978,0.1978,0.1976,0.1993,0.2037,0.2096,0.2172,0.2244,0.2311,0.2356,0.2309,0.2306,0.2125,0.2394,0.2394,0.2394,0.2394,0.2395,0.2395,0.1941,0.1945,0.1946,0.1964,0.1991,0.2049,0.217,0.2237,0.2312,0.2336,0.2335,0.2141,0.2344,0.2306,0.2399,0.2398,0.2398,0.2397,0.2397,0.1907,0.1914,0.1912,0.1928,0.1981,0.1998,0.212,0.2197,0.2288,0.2301,0.211,0.2337,0.2313,0.231,0.2273,0.2352,0.2352,0.2352,0.2351,0.1896,0.1896,0.1898,0.1916,0.1957,0.1981,0.1971,0.2013,0.2027,0.1977,0.2003,0.1911,0.192,0.1868,0.1875,0.1828,0.1792,0.1791,0.179,0.1899,0.1898,0.1889,0.1891,0.194,0.1934,0.1833,0.1688,0.1692,0.1755,0.1802,0.1826,0.168,0.1707,0.1616,0.1638,0.1557,0,0]},{"header":{"parameterUnit":"m.s-1","parameterCategory":2,"la1":30.2992,"la2":30.254,"lo1":-89.0895,"lo2":-89.0443,"dy":0.0025,"dx":0.0025,"nx":19,"ny":19,"refTime":"2026-03-10T09:00:00:Z","depth":"0","parameterNumber":3,"parameterNumberName":"V-component_of_CURRENTS"},"data":[0,0,0,0.0382,0.0383,0.039,0.039,0.0406,0.0406,0,0,0,0,0,0,0,0,0,0,0,0.0377,0.0377,0.0382,0.0383,0.039,0.039,0.0406,0.0406,0,0,0,0,0,0,0,0,0,0,0,0.0377,0.0377,0.0377,0.0383,0.039,0.039,0.0406,0.0398,0,0,0,0,0,0,0,0,0,0,0.039,0.0385,0.0377,0.0377,0.0383,0.039,0.039,0.0398,0.0399,0.0405,0,0.0406,0,0.0409,0.0408,0.0408,0,0,0,0.038,0.0384,0.0387,0.0377,0.0383,0.039,0.0386,0.0398,0.0399,0.0407,0.0406,0.0407,0.041,0.0408,0.0408,0.05,0.0501,0,0,0.038,0.0378,0.0386,0.0388,0.0385,0.0386,0.0386,0.0399,0.04,0.0406,0.0407,0.041,0.0408,0.0408,0.0499,0.05,0,0,0,0.038,0.0377,0.038,0.0387,0.0389,0.0386,0.0387,0.0399,0.04,0.0408,0.041,0.0408,0.0408,0.0498,0.05,0.0587,0,0,0,0.038,0.0378,0.038,0.0379,0.0389,0.0394,0.0386,0.0399,0.0401,0.041,0.0408,0.0409,0.0497,0.0499,0.0582,0.0618,0,0,0,0.0377,0.0378,0.0379,0.0379,0.0383,0.0394,0.0395,0.0399,0.0402,0.0408,0.0409,0.0497,0.0499,0.0579,0.0611,0.0681,0,0,0,0.0374,0.0402,0.0379,0.0411,0.0383,0.0434,0.0395,0.0428,0.044,0.0408,0.0498,0.05,0.0577,0.0607,0.0676,0.0702,0.0725,0,0,0.0415,0.0406,0.0428,0.0408,0.0469,0.0433,0.0504,0.0496,0.0473,0.0491,0.0493,0.0584,0.0611,0.068,0.0819,0.0837,0,0,0,0.0445,0.046,0.0475,0.0499,0.052,0.0553,0.0544,0.0553,0.058,0.0488,0.0601,0.0615,0.0656,0.0663,0.0678,0.0589,0.0509,0.0509,0.0509,0.0495,0.0509,0.056,0.0583,0.0614,0.0644,0.0677,0.0687,0.0651,0.0686,0.0699,0.0827,0.0837,0.0848,0.0757,0.0714,0.0715,0.0715,0.0715,0.056,0.059,0.0617,0.0669,0.0704,0.0758,0.0805,0.0801,0.0864,0.0803,0.0839,0.077,0.087,0.0766,0.0721,0.072,0.0719,0.0719,0.0718,0.0577,0.0601,0.0628,0.0705,0.0783,0.0825,0.0932,0.0945,0.0945,0.0988,0.099,0.0988,0.0885,0.1008,0.1009,0.101,0.101,0.101,0.1011,0.0587,0.0622,0.0676,0.0749,0.0809,0.09,0.1009,0.1073,0.1118,0.1094,0.1093,0.0928,0.0916,0.0891,0.1018,0.1017,0.1016,0.1015,0.1015,0.0628,0.0634,0.071,0.0769,0.0909,0.1037,0.1123,0.1257,0.1298,0.1322,0.1106,0.1151,0.1125,0.1112,0.1091,0.1263,0.1263,0.1263,0.1263,0.0651,0.0661,0.0765,0.0861,0.099,0.1108,0.1301,0.1377,0.1306,0.122,0.1157,0.1078,0.1071,0.1036,0.1024,0.0999,0.1143,0.1143,0.1142,0.0698,0.0716,0.0794,0.0879,0.1034,0.1201,0.1375,0.1423,0.1253,0.1125,0.1033,0.1038,0.0903,0.0901,0.0825,0.0816,0.0766,0,0]}],[{"header":{"parameterUnit":"m.s-1","parameterCategory":2,"la1":30.2992,"la2":30.254,"lo1":-89.0895,"lo2":-89.0443,"dy":0.0025,"dx":0.0025,"nx":19,"ny":19,"refTime":"2026-03-10T09:00:00:Z","depth":"2","parameterNumber":2,"parameterNumberName":"U-component_of_CURRENTS"},"data":[0,0,0,0.1598,0.1598,0.1629,0.1629,0.1677,0.1678,0,0,0,0,0,0,0,0,0,0,0,0.1586,0.1586,0.1598,0.1598,0.1629,0.1629,0.1677,0.1678,0,0,0,0,0,0,0,0,0,0,0,0.1586,0.1586,0.1586,0.1599,0.1629,0.1629,0.1677,0.1654,0,0,0,0,0,0,0,0,0,0,0.1623,0.1612,0.1586,0.1586,0.1599,0.1629,0.1629,0.1652,0.1655,0.1664,0,0.1662,0,0.1669,0.168,0.1681,0,0,0,0.1606,0.161,0.1613,0.1586,0.1599,0.1629,0.1617,0.1654,0.1657,0.1667,0.1663,0.1665,0.167,0.1681,0.1681,0.179,0.179,0,0,0.1604,0.1599,0.1611,0.1615,0.1599,0.1616,0.1618,0.1656,0.1659,0.1663,0.1666,0.167,0.1681,0.1681,0.1789,0.179,0,0,0,0.1594,0.1598,0.16,0.1613,0.1617,0.1617,0.1619,0.1657,0.1656,0.1667,0.1671,0.1681,0.1682,0.1788,0.1789,0.1833,0,0,0,0.1594,0.1591,0.1599,0.1598,0.1615,0.1637,0.162,0.1654,0.1658,0.1671,0.1681,0.1682,0.1787,0.1789,0.1829,0.1806,0,0,0,0.1586,0.1591,0.1591,0.1597,0.1607,0.1636,0.1638,0.1655,0.1661,0.1681,0.1682,0.1786,0.1788,0.1826,0.1803,0.1872,0,0,0,0.1585,0.1608,0.1591,0.1616,0.1606,0.1647,0.1638,0.1685,0.1709,0.1681,0.1787,0.1789,0.1826,0.1801,0.1869,0.1725,0.1726,0,0,0.162,0.1612,0.1628,0.1614,0.1638,0.1643,0.1697,0.1729,0.1743,0.1774,0.1776,0.183,0.1803,0.1872,0.1847,0.1844,0,0,0,0.1643,0.1628,0.164,0.1643,0.1677,0.1702,0.1733,0.176,0.1825,0.1764,0.1861,0.1842,0.1884,0.1793,0.1792,0.1799,0.1799,0.1799,0.1798,0.1619,0.1636,0.1655,0.1667,0.1699,0.1755,0.1803,0.1848,0.1858,0.1911,0.1903,0.201,0.1915,0.1912,0.1953,0.1953,0.1954,0.1954,0.1954,0.1622,0.1629,0.1646,0.1676,0.1718,0.1767,0.1852,0.1893,0.1986,0.1964,0.2006,0.1872,0.1912,0.1958,0.1957,0.1957,0.1956,0.1956,0.1956,0.1584,0.1602,0.1617,0.1663,0.1711,0.1779,0.1861,0.1934,0.2007,0.2059,0.199,0.1987,0.2015,0.2106,0.2106,0.2106,0.2107,0.2107,0.2107,0.1565,0.158,0.1604,0.1648,0.1676,0.1757,0.1865,0.1924,0.1975,0.2003,0.2003,0.2061,0.2056,0.2025,0.2111,0.211,0.211,0.2109,0.2109,0.1537,0.1549,0.1569,0.1592,0.1664,0.1668,0.1795,0.1844,0.1924,0.1921,0.1988,0.199,0.1958,0.1957,0.1923,0.1978,0.1978,0.1978,0.1978,0.1517,0.1527,0.1549,0.1565,0.1616,0.1627,0.1592,0.1598,0.1695,0.1718,0.1729,0.1648,0.1659,0.1607,0.1614,0.1571,0.1535,0.1534,0.1533,0.1503,0.1502,0.1517,0.1539,0.1577,0.155,0.1427,0.1279,0.1327,0.1517,0.1661,0.1947,0.1855,0.1862,0.1802,0.1805,0.1745,0,0]},{"header":{"parameterUnit":"m.s-1","parameterCategory":2,"la1":30.2992,"la2":30.254,"lo1":-89.0895,"lo2":-89.0443,"dy":0.0025,"dx":0.0025,"nx":19,"ny":19,"refTime":"2026-03-10T09:00:00:Z","depth":"2","parameterNumber":3,"parameterNumberName":"V-component_of_CURRENTS"},"data":[0,0,0,0.0071,0.0071,0.0101,0.0101,0.012,0.012,0,0,0,0,0,0,0,0,0,0,0,0.006,0.006,0.0071,0.0071,0.0101,0.0101,0.012,0.012,0,0,0,0,0,0,0,0,0,0,0,0.006,0.006,0.006,0.0071,0.0101,0.0101,0.012,0.0104,0,0,0,0,0,0,0,0,0,0,0.0079,0.0067,0.006,0.006,0.0071,0.0101,0.0101,0.0104,0.0105,0.0099,0,0.0099,0,0.0106,0.0121,0.0121,0,0,0,0.0079,0.0066,0.0074,0.006,0.0071,0.0101,0.009,0.0105,0.0107,0.0101,0.0099,0.01,0.0107,0.0121,0.0121,0.0165,0.0165,0,0,0.0077,0.0067,0.0073,0.0075,0.0072,0.0089,0.009,0.0106,0.0104,0.0099,0.0101,0.0107,0.0121,0.0121,0.0164,0.0165,0,0,0,0.0067,0.0065,0.0074,0.0074,0.0078,0.0089,0.0091,0.0104,0.0106,0.0101,0.0107,0.0121,0.0121,0.0164,0.0165,0.0229,0,0,0,0.0067,0.0059,0.0073,0.0067,0.0078,0.0093,0.0088,0.0105,0.0107,0.0107,0.0121,0.0121,0.0163,0.0164,0.0226,0.0254,0,0,0,0.006,0.0059,0.006,0.0066,0.0076,0.0094,0.0098,0.0106,0.0111,0.0121,0.0121,0.0163,0.0164,0.0223,0.025,0.0316,0,0,0,0.0052,0.0071,0.006,0.0083,0.0076,0.0115,0.0098,0.0127,0.014,0.0121,0.0163,0.0164,0.0222,0.0247,0.0312,0.0317,0.0333,0,0,0.0079,0.0074,0.009,0.0081,0.0126,0.0112,0.0162,0.0169,0.0154,0.0157,0.0158,0.0227,0.025,0.0315,0.0381,0.0394,0,0,0,0.0101,0.0109,0.012,0.0138,0.0158,0.0192,0.0194,0.0193,0.0216,0.0164,0.0231,0.0244,0.0283,0.0279,0.029,0.017,0.017,0.0169,0.0169,0.0116,0.0134,0.0173,0.0199,0.0224,0.025,0.028,0.0281,0.0253,0.0276,0.0299,0.0396,0.0392,0.0401,0.0302,0.0303,0.0303,0.0303,0.0303,0.0168,0.0197,0.0219,0.0268,0.0297,0.0337,0.0365,0.0363,0.0408,0.0356,0.0392,0.035,0.0417,0.0308,0.0307,0.0307,0.0306,0.0306,0.0305,0.0188,0.021,0.0237,0.0309,0.0366,0.0402,0.049,0.0484,0.0477,0.0514,0.0517,0.0516,0.0443,0.0539,0.054,0.054,0.054,0.0541,0.0541,0.0206,0.0235,0.0284,0.0354,0.0401,0.049,0.0558,0.06,0.0612,0.0593,0.0593,0.0476,0.0469,0.0457,0.0548,0.0546,0.0546,0.0545,0.0545,0.0242,0.0249,0.032,0.0369,0.0488,0.0601,0.0672,0.0758,0.077,0.078,0.0643,0.0639,0.0622,0.0612,0.0604,0.0728,0.0728,0.0728,0.0728,0.0259,0.027,0.0357,0.0429,0.0543,0.0647,0.0814,0.0847,0.0799,0.0734,0.0734,0.0669,0.0662,0.0643,0.0632,0.0622,0.0751,0.0751,0.0751,0.0286,0.0303,0.037,0.0438,0.0557,0.0714,0.0872,0.0894,0.077,0.075,0.0719,0.0733,0.0633,0.0624,0.0586,0.0572,0.0552,0,0]}],[{"header":{"parameterUnit":"m.s-1","parameterCategory":2,"la1":30.2992,"la2":30.254,"lo1":-89.0895,"lo2":-89.0443,"dy":0.0025,"dx":0.0025,"nx":19,"ny":19,"refTime":"2026-03-10T09:00:00:Z","depth":"4","parameterNumber":2,"parameterNumberName":"U-component_of_CURRENTS"},"data":[0,0,0,0.0847,0.0848,0.094,0.094,0.1046,0.1046,0,0,0,0,0,0,0,0,0,0,0,0.0825,0.0826,0.0847,0.0848,0.094,0.094,0.1046,0.1046,0,0,0,0,0,0,0,0,0,0,0,0.0825,0.0826,0.0826,0.0849,0.0939,0.094,0.1045,0.0983,0,0,0,0,0,0,0,0,0,0,0.0897,0.087,0.0826,0.0826,0.0849,0.0939,0.094,0.098,0.0987,0.0996,0,0.1011,0,0.102,0.1052,0.1052,0,0,0,0.0863,0.0864,0.0888,0.0827,0.085,0.0939,0.0903,0.0984,0.0991,0.1005,0.1013,0.1017,0.1022,0.1052,0.1053,0.1142,0.1142,0,0,0.0858,0.0843,0.0883,0.0893,0.0874,0.0899,0.0905,0.0989,0.0997,0.1013,0.1019,0.1024,0.1053,0.1054,0.1142,0.1142,0,0,0,0.0833,0.084,0.0863,0.0889,0.09,0.0902,0.0908,0.0993,0.1001,0.102,0.1025,0.1053,0.1054,0.1141,0.1142,0.1151,0,0,0,0.0831,0.0825,0.086,0.0853,0.0899,0.0948,0.0911,0.0996,0.1005,0.1025,0.1053,0.1055,0.1141,0.1141,0.115,0.1158,0,0,0,0.0821,0.0823,0.0834,0.0852,0.0884,0.0947,0.096,0.0998,0.1007,0.1052,0.1055,0.114,0.1141,0.1149,0.1156,0.1179,0,0,0,0.0803,0.0812,0.0834,0.0852,0.0883,0.0935,0.096,0.1015,0.1055,0.1054,0.1141,0.1142,0.1149,0.1155,0.1178,0.1027,0,0,0,0.08,0.0811,0.0823,0.0844,0.0881,0.0924,0.0977,0.1043,0.107,0.1114,0.1117,0.115,0.1156,0.1179,0.108,0,0,0,0,0.0812,0.0819,0.0837,0.0866,0.091,0.0966,0.1024,0.1055,0.1123,0.1095,0.1165,0.1169,0.1183,0.1092,0.1146,0.1146,0.1146,0.1146,0.1145,0.0793,0.0818,0.084,0.0881,0.0921,0.1002,0.1055,0.111,0.1132,0.1169,0.1188,0.1227,0.1132,0.1198,0.1198,0.1199,0.1199,0.1199,0.1199,0.0791,0.0802,0.0843,0.0876,0.094,0.0997,0.109,0.113,0.1209,0.1211,0.1224,0.1122,0.12,0.12,0.1199,0.1199,0.1199,0.1199,0.1199,0.0784,0.0786,0.0822,0.0871,0.0929,0.1007,0.107,0.1156,0.1219,0.125,0.1167,0.1242,0.1229,0.1265,0.1265,0.1265,0.1265,0.1265,0.1266,0.0756,0.0785,0.0801,0.0861,0.0884,0.0951,0.1075,0.1124,0.1209,0.1171,0.1265,0.1249,0.1247,0.1234,0.1268,0.1267,0.1267,0.1267,0.1267,0.072,0.0746,0.0754,0.0774,0.0812,0.0842,0.0982,0.1058,0.1104,0.1106,0.1126,0.1132,0.1118,0.1119,0.11,0.1096,0.1094,0.1092,0,0.0686,0.0702,0.0682,0.0672,0.0676,0.0756,0.0789,0.0879,0.097,0.0928,0.1081,0.1099,0.1104,0.1082,0.1081,0.1055,0,0,0,0.0648,0.0648,0.0607,0.0606,0.0584,0.0662,0.0786,0.0791,0.096,0.0978,0.1047,0.1059,0.1179,0.1274,0.1268,0.1265,0.1243,0,0]},{"header":{"parameterUnit":"m.s-1","parameterCategory":2,"la1":30.2992,"la2":30.254,"lo1":-89.0895,"lo2":-89.0443,"dy":0.0025,"dx":0.0025,"nx":19,"ny":19,"refTime":"2026-03-10T09:00:00:Z","depth":"4","parameterNumber":3,"parameterNumberName":"V-component_of_CURRENTS"},"data":[0,0,0,0.0025,0.0025,0.0039,0.0039,0.0043,0.0043,0,0,0,0,0,0,0,0,0,0,0,0.0018,0.0018,0.0025,0.0025,0.0039,0.0039,0.0043,0.0043,0,0,0,0,0,0,0,0,0,0,0,0.0018,0.0018,0.0018,0.0025,0.0039,0.0039,0.0043,0.0036,0,0,0,0,0,0,0,0,0,0,0.0024,0.0019,0.0018,0.0018,0.0025,0.0039,0.0039,0.0036,0.0036,0.0032,0,0.0032,0,0.0037,0.0042,0.0042,0,0,0,0.0026,0.0019,0.0023,0.0018,0.0025,0.0039,0.0033,0.0036,0.0037,0.0032,0.0032,0.0033,0.0037,0.0042,0.0042,0.0035,0.0035,0,0,0.0026,0.0021,0.0023,0.0023,0.0026,0.0033,0.0034,0.0037,0.0036,0.0032,0.0033,0.0037,0.0042,0.0042,0.0036,0.0035,0,0,0,0.0022,0.002,0.0025,0.0023,0.0027,0.0033,0.0034,0.0035,0.0037,0.0033,0.0037,0.0042,0.0042,0.0036,0.0036,0.0071,0,0,0,0.0022,0.0018,0.0024,0.0021,0.0027,0.0033,0.0033,0.0037,0.0038,0.0037,0.0042,0.0042,0.0036,0.0036,0.007,0.0102,0,0,0,0.0018,0.0018,0.0019,0.0021,0.0027,0.0033,0.0035,0.0037,0.004,0.0042,0.0042,0.0036,0.0036,0.0069,0.01,0.0125,0,0,0,0.0013,0.002,0.0019,0.0028,0.0027,0.0044,0.0035,0.0045,0.0049,0.0042,0.0036,0.0036,0.0069,0.0099,0.0124,0.0142,0,0,0,0.0021,0.002,0.0027,0.0027,0.0047,0.0043,0.0062,0.006,0.0043,0.0034,0.0034,0.007,0.01,0.0125,0.0134,0,0,0,0,0.003,0.0037,0.0042,0.0053,0.0061,0.0081,0.0074,0.0066,0.006,0.0044,0.0058,0.0075,0.009,0.0095,0.0035,0.0035,0.0035,0.0035,0.0035,0.0043,0.005,0.0069,0.0082,0.0093,0.0103,0.0113,0.01,0.0076,0.0072,0.0094,0.0126,0.0131,0.0073,0.0073,0.0074,0.0074,0.0074,0.0074,0.007,0.0083,0.0097,0.0118,0.0134,0.0149,0.0154,0.0142,0.0143,0.0112,0.0124,0.012,0.0077,0.0076,0.0076,0.0076,0.0075,0.0075,0.0075,0.0084,0.0091,0.0107,0.0142,0.0177,0.0192,0.0241,0.0224,0.0188,0.02,0.0202,0.0156,0.0165,0.0202,0.0203,0.0203,0.0203,0.0203,0.0203,0.0089,0.0105,0.0136,0.0174,0.0209,0.0262,0.0296,0.0306,0.0275,0.0256,0.0216,0.017,0.0165,0.0172,0.0207,0.0207,0.0206,0.0206,0.0205,0.0099,0.0112,0.0158,0.0197,0.0285,0.033,0.0366,0.0378,0.0385,0.0364,0.0281,0.0276,0.027,0.0264,0.0274,0.0341,0.0341,0.0342,0,0.0106,0.0115,0.0186,0.0259,0.034,0.038,0.0426,0.0433,0.0381,0.0369,0.0364,0.027,0.0266,0.0258,0.0253,0.0263,0,0,0,0.0118,0.0139,0.0194,0.0269,0.0367,0.0414,0.044,0.0438,0.0385,0.0402,0.0352,0.0349,0.0287,0.0219,0.0199,0.0194,0.0203,0,0]}]]